Zurück zum Katalog

CLEMENTINE 1

DSPSE

AktivWissenschaftHEO
NORAD 22973·PAYLOAD·🇺🇸 United States

Gestartet Jan 25, 1994 von Vandenberg Space Force Base

Loading…

Nächste Überflüge (nächste 24 Stunden)

TLE

VeraltetSource: Space-Track

Epoche: Feb 17, 1994, 00:00 UTC

1 22973U 94004  A 94048.00000000 -.00014888 +00000-0 +10000-3 0  9999
2 22973 063.7849 059.2740 9660896 205.9201 046.9616 00.08911390003569

Verfolge CLEMENTINE 1 in Echtzeit mit AllMySat

Download on the App Store